Location: Unspecified
(0.0000°N, 0.0000°E)
Time: 21:33:58
(UTC+00:00)

deb r/b Ablestar - Pass Details

Date: 12 March 2026
Orbit: 827 x 964 km, 67.7° (Epoch: 11 April)

Event Time Altitude Azimuth Distance (km) Brightness Sun altitude
Rises 19:32:05 0° 333° (NNW) 3,455 ? -20.6°
Reaches altitude 10° 19:34:33 10° 330° (NNW) 2,540 ? -21.2°
Maximum altitude 19:40:20 59° 251° (WSW) 1,046 ? -22.6°
Drops below altitude 10° 19:46:22 10° 173° (S) 2,642 ? -24.1°
Sets 19:48:59 0° 169° (S) 3,605 ? -24.8°
